Location: Bakov nad Jizerou
(50.4784°N, 14.9394°E)
Time: 14:24:16
(UTC+00:00)

SL-16 R/B - Pass Details

Date: 16 June 2021
Orbit: 985 x 1007 km, 99.5° (Epoch: 02 August)

Event Time Altitude Azimuth Distance (km) Brightness Sun altitude
Exits shadow 23:25:59 - 131° (SE) 3,441 5.0 -15.9°
Reaches altitude 10° 23:27:54 10° 125° (SE) 2,759 4.6 -15.9°
Maximum altitude 23:33:30 37° 60° (ENE) 1,494 3.8 -15.8°
Drops below altitude 10° 23:39:05 10° 356° (N) 2,761 6.1 -15.7°
Sets 23:41:43 0° 348° (NNW) 3,712 6.9 -15.6°
